Location: *
(51.8167°N, 12.5000°E)
Time: 17:06:16
(UTC+00:00)

NOSS 3-3 (A) - Pass Details

Date: 16 September 2019
Orbit: 849 x 1363 km, 63.4° (Epoch: 08 October)

Event Time Altitude Azimuth Distance (km) Brightness Sun altitude
Rises 17:50:03 0° 198° (SSW) 3,465 7.0 -4.9°
Reaches altitude 10° 17:52:31 10° 192° (SSW) 2,572 6.3 -5.3°
Maximum altitude 17:58:09 45° 121° (ESE) 1,288 4.3 -6.2°
Drops below altitude 10° 18:04:27 10° 51° (NE) 2,875 6.1 -7.1°
Sets 18:07:21 0° 46° (NE) 3,916 6.8 -7.6°
